This is the latest recevied weather packets stored in our database for station/object KB9YVI-11. If no packets are shown the sender has not sent any weather packets the latest 10 day(s).
| Time | Temp. | Humidity | Pressure | Rain* | Wind** | Luminosity | Snow |
|---|---|---|---|---|---|---|---|
| 1777667144 | 13.33° C | 80% | 0 hPa | 0 mm | - | - | - |
| 1777666844 | 12.78° C | 81% | 0 hPa | 0 mm | - | - | - |
| 1777666244 | 12.22° C | 82% | 0 hPa | 0 mm | - | - | - |
| 1777665944 | 12.22° C | 81% | 0 hPa | 0 mm | - | - | - |
| 1777665644 | 12.78° C | 81% | 0 hPa | 0 mm | - | - | - |
| 1777665344 | 12.78° C | 83% | 0 hPa | 0 mm | - | - | - |
| 1777665044 | 12.78° C | 83% | 0 hPa | 0 mm | - | - | - |
| 1777664744 | 12.78° C | 83% | 0 hPa | 0 mm | - | - | - |
| 1777664144 | 13.33° C | 80% | 0 hPa | 0 mm | - | - | - |
| 1777663843 | 12.78° C | 82% | 0 hPa | 0 mm | - | - | - |
| 1777663544 | 12.78° C | 82% | 0 hPa | 0 mm | - | - | - |
| 1777663244 | 12.78° C | 81% | 0 hPa | 0 mm | - | - | - |
| 1777662944 | 13.33° C | 79% | 0 hPa | 0 mm | - | - | - |
| 1777662344 | 13.89° C | 83% | 0 hPa | 0 mm | - | - | - |
| 1777661744 | 13.33° C | 81% | 0 hPa | 0 mm | - | - | - |
| 1777661444 | 13.33° C | 80% | 0 hPa | 0 mm | - | - | - |
| 1777661144 | 13.33° C | 82% | 0 hPa | 0 mm | - | - | - |
| 1777660844 | 12.78° C | 81% | 0 hPa | 0 mm | - | - | - |
| 1777660243 | 12.22° C | 83% | 0 hPa | 0 mm | - | - | - |
| 1777659944 | 12.78° C | 85% | 0 hPa | 0 mm | - | - | - |
| 1777659644 | 12.78° C | 83% | 0 hPa | 0 mm | - | - | - |
| 1777659344 | 12.78° C | 83% | 0 hPa | 0 mm | - | - | - |
| 1777659044 | 12.78° C | 85% | 0 hPa | 0 mm | - | - | - |
| 1777658744 | 12.78° C | 83% | 0 hPa | 0 mm | - | - | - |
| 1777658444 | 12.22° C | 88% | 0 hPa | 0 mm | - | - | - |
* Rain latest hour (hover to see other rain measurements)
** Current wind speed in m/s (hover to see current wind gust speed)